Location: Unspecified
(0.0000°N, 0.0000°E)
Time: 22:05:28
(UTC+00:00)

Courier 1B - All Passes

Search period start: 25 October 2014 00:00
Search period end: 04 November 2014 00:00
Orbit: 963 x 1209 km, 28.3° (Epoch: 23 October)

Date Brightness Start Highest point End Pass type
(mag) Time Alt. Az. Time Alt. Az. Time Alt. Az.
25 Oct - 03:23:02 10° SSW 03:28:09 23° SSE 03:33:27 10° ESE visible
25 Oct - 05:15:33 10° WSW 05:22:24 82° SSE 05:29:43 10° ENE visible
25 Oct - 07:10:40 10° W 07:16:49 31° NNW 07:23:17 10° NNE daylight
25 Oct - 09:10:42 10° NNW 09:12:16 11° NNW 09:13:51 10° N daylight
25 Oct - 14:56:05 10° NNW 15:01:55 23° NNE 15:07:34 10° ENE daylight
25 Oct - 16:49:05 10° NW 16:56:37 71° NNE 17:03:42 10° ESE daylight
25 Oct - 18:44:26 10° W 18:50:52 34° SSW 18:56:59 10° SE visible
26 Oct - 02:30:17 10° SSW 02:34:15 16° SSE 02:38:17 10° ESE visible
26 Oct - 04:22:03 10° SW 04:28:37 59° SSE 04:35:35 10° ENE visible
26 Oct - 06:16:24 10° W 06:22:52 41° NNW 06:29:43 10° NE daylight
26 Oct - 08:14:27 10° NW 08:17:57 14° NNW 08:21:32 10° N daylight
26 Oct - 14:02:50 10° NNW 14:07:44 18° NNE 14:12:33 10° ENE daylight
26 Oct - 15:55:16 10° NW 16:02:43 52° NNE 16:09:46 10° ESE daylight
26 Oct - 17:49:55 10° WNW 17:57:01 48° SSW 18:03:43 10° SE daylight
26 Oct - 19:48:12 10° SW 19:51:39 14° SSW 19:55:01 10° S visible
27 Oct - 01:38:10 10° S 01:40:15 12° SSE 01:42:21 10° SE visible
27 Oct - 03:28:42 10° SW 03:34:51 41° SSE 03:41:18 10° E visible
27 Oct - 05:22:22 10° WSW 05:28:59 56° NNW 05:36:02 10° NE daylight
27 Oct - 07:19:10 10° WNW 07:23:45 18° NNW 07:28:31 10° NNE daylight
27 Oct - 13:09:53 10° N 13:13:28 14° NNE 13:17:01 10° NE daylight
27 Oct - 15:01:35 10° NW 15:08:44 39° NNE 15:15:35 10° E daylight
27 Oct - 16:55:37 10° WNW 17:03:10 67° SSW 17:10:16 10° SE daylight
27 Oct - 18:52:36 10° WSW 18:57:37 20° SSW 19:02:28 10° SSE visible
28 Oct - 02:35:32 10° SSW 02:41:05 29° SSE 02:46:48 10° E visible
28 Oct - 04:28:33 10° WSW 04:35:12 78° NNW 04:42:15 10° NE visible
28 Oct - 06:24:20 10° WNW 06:29:40 23° NNW 06:35:15 10° NNE daylight
28 Oct - 12:18:02 10° N 12:19:05 10° NNE 12:20:08 10° NNE daylight
28 Oct - 14:08:03 10° NNW 14:14:40 30° NNE 14:21:07 10° E daylight
28 Oct - 16:01:30 10° WNW 16:09:16 90° SSW 16:16:38 10° ESE daylight
28 Oct - 17:57:31 10° W 18:03:39 27° SSW 18:09:32 10° SSE visible
29 Oct - 01:42:32 10° SSW 01:47:15 21° SSE 01:52:01 10° ESE visible
29 Oct - 03:34:54 10° SW 03:41:27 76° SSE 03:48:19 10° ENE visible
29 Oct - 05:29:51 10° W 05:35:42 31° NNW 05:41:51 10° NNE daylight
29 Oct - 07:30:04 10° NNW 07:30:59 10° NNW 07:31:54 10° N daylight
29 Oct - 13:14:42 10° NNW 13:20:32 22° NNE 13:26:19 10° ENE daylight
29 Oct - 15:07:34 10° NW 15:15:20 68° NNE 15:22:47 10° ESE daylight
29 Oct - 17:02:46 10° W 17:09:43 38° SSW 17:16:21 10° SE daylight
29 Oct - 19:02:26 10° SW 19:04:39 11° SSW 19:06:50 10° S visible
30 Oct - 00:49:49 10° S 00:53:20 15° SSE 00:56:51 10° ESE night (unlit)
30 Oct - 02:41:25 10° SW 02:47:44 54° SSE 02:54:16 10° ENE visible
30 Oct - 04:35:39 10° W 04:41:50 42° NNW 04:48:21 10° NE visible
30 Oct - 06:33:34 10° NW 06:36:44 13° NNW 06:39:59 10° N daylight
30 Oct - 12:21:33 10° NNW 12:26:20 17° NNE 12:31:06 10° ENE daylight
30 Oct - 14:13:48 10° NW 14:21:21 50° NNE 14:28:43 10° ESE daylight
30 Oct - 16:08:17 10° WNW 16:15:47 52° SSW 16:22:58 10° SE daylight
30 Oct - 18:06:09 10° WSW 18:10:31 16° SSW 18:14:45 10° SSE visible
30 Oct - 23:57:59 10° S 23:59:19 11° SSE 00:00:39 10° SSE night (unlit)
31 Oct - 01:48:05 10° SW 01:54:01 38° SSE 02:00:02 10° E visible
31 Oct - 03:41:39 10° WSW 03:48:03 58° NNW 03:54:44 10° NE visible
31 Oct - 05:38:20 10° WNW 05:42:38 18° NNW 05:47:05 10° NNE daylight
31 Oct - 11:28:50 10° N 11:32:02 13° NNE 11:35:16 10° NE daylight
31 Oct - 13:20:12 10° NW 13:27:19 38° NNE 13:34:22 10° E daylight
31 Oct - 15:14:02 10° WNW 15:21:51 72° SSW 15:29:23 10° SE daylight
31 Oct - 17:10:45 10° WSW 17:16:26 22° SSW 17:21:56 10° SSE daylight
01 Nov - 00:54:53 10° SSW 01:00:14 27° SSE 01:05:36 10° E night (unlit)
01 Nov - 02:47:51 10° WSW 02:54:20 82° NNW 03:01:01 10° ENE visible
01 Nov - 04:43:33 10° WNW 04:48:38 23° NNW 04:53:55 10° NNE visible
01 Nov - 12:26:46 10° NNW 12:33:15 28° NNE 12:39:44 10° E daylight
01 Nov - 14:20:00 10° WNW 14:27:54 86° NNE 14:35:37 10° ESE daylight
01 Nov - 16:15:46 10° W 16:22:24 31° SSW 16:28:49 10° SSE daylight
02 Nov - 00:01:51 10° SSW 00:06:23 20° SSE 00:10:53 10° ESE night (unlit)
02 Nov - 01:54:12 10° SW 02:00:39 71° SSE 02:07:11 10° ENE visible
02 Nov - 03:49:06 10° W 03:54:45 31° NNW 04:00:37 10° NNE visible
02 Nov - 11:33:33 10° NNW 11:39:07 21° NNE 11:44:44 10° ENE daylight
02 Nov - 13:26:09 10° NW 13:33:55 64° NNE 13:41:37 10° ESE daylight
02 Nov - 15:21:06 10° W 15:28:24 42° SSW 15:35:29 10° SE daylight
02 Nov - 17:19:59 10° SW 17:23:25 13° SSW 17:26:48 10° S daylight
02 Nov - 23:09:04 10° S 23:12:26 14° SSE 23:15:45 10° SE night (unlit)
03 Nov - 01:00:41 10° SW 01:06:57 50° SSE 01:13:12 10° ENE night (unlit)
03 Nov - 02:54:53 10° W 03:00:58 43° NNW 03:07:12 10° NE visible
03 Nov - 04:52:49 10° NW 04:55:41 13° NNW 04:58:36 10° N visible
03 Nov - 10:40:37 10° NNW 10:44:55 16° NNE 10:49:17 10° ENE daylight
03 Nov - 12:32:30 10° NW 12:39:55 48° NNE 12:47:23 10° ESE daylight
03 Nov - 14:26:44 10° WNW 14:34:24 57° SSW 14:41:58 10° SE daylight
03 Nov - 16:24:11 10° WSW 16:29:14 18° SSW 16:34:11 10° SSE daylight
03 Nov - 22:17:09 10° S 22:18:21 11° SSE 22:19:33 10° SSE night (unlit)
